STARLINK-11591, 63116

Orbit data source: Space-Track

STARLINK-11591, 63116 is a payload satellite owned by SpaceX/Seattle (US) in LEO that was launched on Thu, 27 Feb 2025 UTC via an FALCON 9 launch vehicle from the Air Force Eastern Test Range (AFETR). Payload-class satellites include a variety of spacecraft equipped with specific instruments for various scientific and technological missions. These include communications satellites like Starlink; space stations such as the ISS; scientific satellites like the Hubble; Earth observation satellites from companies like Planet Labs, Umbra, and HawkEye 360; GPS; miniature CubeSats for education and research; and military/defense satellites.

Loading next visibility...
Identifier
63116, 2025-039N
Orbit
LEO
Country
Flag of USUS
Related business
Manufacturer
SpaceX/Seattle
Mission
Operational Commercial Communications
Bus & Motor
STARLINK V2MD, Unknown motor
Mass
960 kg wet, ~910 kg dry
Launch date (UTC)
2025-02-27 (1 year ago)
Launch vehicle
FALCON 9
Launch site
Air Force Eastern Test Range (AFETR)
Object type
Payload
Rocket body
Debris
Shape & HBR
Box + 2 Pan, 18.1 m
Radar Cross Section
36.964 m², Large (>1 m²)

Expand to show TLE details & history
Last TLE update: 7 hours ago

TLE from 7 hours ago
0 STARLINK-11591
1 63116U 25039N   26126.63881534  .00188249  00000-0  14389-2 0  9990
2 63116  42.9993 247.1610 0002181 316.2921  43.7774 15.70817693 68735
Epoch: 2026-05-06T15:19Z
TLE epoch observation values (Epoch: 2026-05-06T15:19:53.645Z)
Latitude
0.00001°
Longitude
152.69106°
Altitude
355.27 km
Speed
7.698 km/s
True Right ascension
16h 28m 38s
True Declination
0° 00' 00"
Sunlit
Object was in full shadow at epoch
Visualization orbit readout
Latitude
Unknown
Longitude
Unknown
Altitude
Unknown
Speed
Unknown
Apparent Right ascension
Unknown
Apparent Declination
Unknown
Sunlit
N/A
Visualization observer readout
Local Sidereal Time
06:25:29
Azimuth
Unknown
Elevation
Unknown
Doppler factor
Unknown
Orbital elements
Apogee altitude
360.01 km
Perigee altitude
357.071 km
Semi-major axis
6,736.678 km
Eccentricity
0.00022
Inclination
42.9993°
RAAN
247.161°
Arg. of periapsis
316.2921°
True anomaly
43.79469°
Mean anomaly
43.7774°
Eccentric anomaly
43.78605°
Mean motion
3.92532 °/min
Orbital period
91.71 mins
BSTAR
0.0014389
Loading maneuver chart data...
Computing Atmospheric mass density...
Loading historical data...
Loading historical data...
Loading historical data...
Loading historical data...
Loading historical data...
Loading historical data...
Loading historical data...

Documentation

Showing up to 5 results
|